STARLINK-34314, 64146

Orbit data source: Space-Track

STARLINK-34314, 64146 is a payload satellite owned by SpaceX/Seattle (US) in SSO that was launched on Tue, 27 May 2025 UTC via an FALCON 9 launch vehicle from the Air Force Western Test Range (AFWTR). Payload-class satellites include a variety of spacecraft equipped with specific instruments for various scientific and technological missions. These include communications satellites like Starlink; space stations such as the ISS; scientific satellites like the Hubble; Earth observation satellites from companies like Planet Labs, Umbra, and HawkEye 360; GPS; miniature CubeSats for education and research; and military/defense satellites.

Loading next visibility...
Identifier
64146, 2025-112A
Orbit
SSO
Country
Flag of USUS
Related business
Manufacturer
SpaceX/Seattle
Mission
Operational Commercial Communications
Bus & Motor
STARLINK V2MO, Unknown motor
Mass
575 kg wet, ~530 kg dry
Launch date (UTC)
2025-05-27 (1 year ago)
Launch vehicle
FALCON 9
Launch site
Air Force Western Test Range (AFWTR)
Object type
Payload
Rocket body
Debris
Shape & HBR
Box + 1 Pan, 17.7 m
Radar Cross Section
41.120 m², Large (>1 m²)

Expand to show TLE details & history
Last TLE update: 1 day ago

TLE from 1 day ago
0 STARLINK-34314
1 64146U 25112A   26237.12600559  .00019404  00000-0  60172-3 0  9997
2 64146  97.2813 284.5289 0001516 108.0885 252.0523 15.33449926 68700
Epoch: 2026-08-25T03:01Z
TLE epoch observation values (Epoch: 2026-08-25T03:01:26.882Z)
Latitude
-0.00005°
Longitude
-94.23094°
Altitude
468.961 km
Speed
7.632 km/s
True Right ascension
18h 58m 06s
True Declination
0° 00' 00"
Sunlit
Object was in full shadow at epoch
Visualization orbit readout
Latitude
Unknown
Longitude
Unknown
Altitude
Unknown
Speed
Unknown
Apparent Right ascension
Unknown
Apparent Declination
Unknown
Sunlit
N/A
Visualization observer readout
Local Sidereal Time
23:18:35
Azimuth
Unknown
Elevation
Unknown
Doppler factor
Unknown
Orbital elements
Apogee altitude
463.508 km
Perigee altitude
461.434 km
Semi-major axis
6,840.608 km
Eccentricity
0.00015
Inclination
97.2813°
RAAN
284.5289°
Arg. of periapsis
108.0885°
True anomaly
252.03577°
Mean anomaly
252.0523°
Eccentric anomaly
252.04404°
Mean motion
3.8362 °/min
Orbital period
93.84 mins
BSTAR
0.00060172
Loading maneuver chart data...
Computing Atmospheric mass density...
Loading historical data...
Loading historical data...
Loading historical data...
Loading historical data...
Loading historical data...
Loading historical data...
Loading historical data...

Documentation

Showing up to 5 results
|